This is the latest recevied weather packets stored in our database for station/object K9MWD. If no packets are shown the sender has not sent any weather packets the latest 10 day(s).
| Time | Temp. | Humidity | Pressure | Rain* | Wind** | Luminosity | Snow |
|---|---|---|---|---|---|---|---|
| 1777852044 | 26.11° C | 38% | 1016.5 hPa | 0 mm | - | 117 W/m² | - |
| 1777851742 | 26.11° C | 39% | 1016.6 hPa | 0 mm | - | 134 W/m² | - |
| 1777851439 | 26.11° C | 39% | 1016.5 hPa | 0 mm | - | 148 W/m² | - |
| 1777851134 | 26.11° C | 39% | 1016.6 hPa | 0 mm | - | 158 W/m² | - |
| 1777850831 | 26.11° C | 38% | 1016.6 hPa | 0 mm | - | 180 W/m² | - |
| 1777850528 | 26.67° C | 37% | 1016.6 hPa | 0 mm | - | 189 W/m² | - |
| 1777850227 | 26.67° C | 37% | 1016.5 hPa | 0 mm | - | 213 W/m² | - |
| 1777849923 | 26.67° C | 37% | 1016.6 hPa | 0 mm | - | 221 W/m² | - |
| 1777849619 | 26.67° C | 36% | 1016.7 hPa | 0 mm | - | 235 W/m² | - |
| 1777849317 | 26.67° C | 36% | 1016.6 hPa | 0 mm | - | 252 W/m² | - |
| 1777849014 | 26.67° C | 35% | 1016.8 hPa | 0 mm | - | 288 W/m² | - |
| 1777848714 | 26.67° C | 35% | 1016.8 hPa | 0 mm | - | 314 W/m² | - |
| 1777848411 | 26.67° C | 35% | 1016.5 hPa | 0 mm | - | 316 W/m² | - |
| 1777848109 | 26.67° C | 36% | 1016.6 hPa | 0 mm | - | 362 W/m² | - |
| 1777847807 | 26.67° C | 35% | 1016.9 hPa | 0 mm | - | 399 W/m² | - |
| 1777847503 | 26.67° C | 35% | 1016.6 hPa | 0 mm | - | 331 W/m² | - |
| 1777847200 | 26.67° C | 35% | 1016.8 hPa | 0 mm | - | 363 W/m² | - |
| 1777846898 | 26.67° C | 36% | 1017 hPa | 0 mm | - | 210 W/m² | - |
| 1777846596 | 26.67° C | 36% | 1016.8 hPa | 0 mm | - | 151 W/m² | - |
| 1777846293 | 27.22° C | 35% | 1016.9 hPa | 0 mm | - | 222 W/m² | - |
| 1777845990 | 27.78° C | 34% | 1017.1 hPa | 0 mm | - | 481 W/m² | - |
| 1777845686 | 27.22° C | 35% | 1017.1 hPa | 0 mm | - | 491 W/m² | - |
| 1777845384 | 27.22° C | 34% | 1017 hPa | 0 mm | - | 476 W/m² | - |
| 1777845080 | 27.78° C | 34% | 1017.1 hPa | 0 mm | - | 519 W/m² | - |
| 1777844780 | 27.78° C | 31% | 1017.3 hPa | 0 mm | - | 547 W/m² | - |
* Rain latest hour (hover to see other rain measurements)
** Current wind speed in m/s (hover to see current wind gust speed)